Location: Newark
(40.7066°N, 111.8219°W)
Time: 10:42:49
(UTC+00:00)

deb Explorer IX - Pass Details

Date: 24 November 2019
Orbit: 546 x 1105 km, 38.8° (Epoch: 09 December)

Event Time Altitude Azimuth Distance (km) Brightness Sun altitude
Exits shadow 12:31:49 15° 214° (SSW) 1,899 ? -21.0°
Drops below altitude 10° 12:34:20 10° 183° (S) 2,155 ? -20.5°
Sets 12:37:26 0° 161° (SSE) 2,960 ? -20.0°
